Date String (YYYY-MM-DD hh:mm:ss) UTC,Instrument flags,absolute air pressure of the measurement (hPa),sample flow rate (lpm),inlet stack bypass flow (lpm),air temperature of the measurement (°C),ambient temperature measured by the external sensor (°C),aerosol sample conditioner tube jacket temperature (°C),OPC LED temperature (°C),internal box temperature (°C),relative humidity of the measurement (%),span deviation,mass concentration of particles derived from Lorenz-Mie calculation of OPC scattering (μg/m³),mass concentration of particles derived from Lorenz-Mie calculation of OPC scattering (μg/m³),mass concentration of particles derived from Lorenz-Mie calculation of OPC scattering (μg/m³)
DateTimeUTC,F1_M11,P_M11,Q1_M11,Q2_M11,T1_M11,T2_M11,T3_M11,T4_M11,T5_M11,U1_M11,ZSPAN_M11,X0_M11,X2_M11,X1_M11
2024-05-25 01:00:00,SystemResetWarning,0823.3,5.01,000.00,031.5,030.9,000.0,039.8,033.1,007.7,0000.0,0010.00,0002.22,0001.18
2024-05-25 01:01:00,SystemResetWarning,0823.3,5.01,000.00,031.5,030.9,000.0,039.9,033.1,007.8,0000.0,0010.38,0002.28,0001.18
2024-05-25 01:02:00,SystemResetWarning,0823.3,5.00,000.00,031.6,030.9,000.0,039.9,033.1,007.5,0000.0,0010.02,0002.35,0001.19
2024-05-25 01:03:00,SystemResetWarning,0823.3,5.00,000.00,031.6,030.9,000.0,039.9,033.2,007.5,0000.0,0010.13,0002.29,0001.18
2024-05-25 01:04:00,SystemResetWarning,0823.3,5.00,000.00,031.6,030.9,000.0,039.9,033.2,007.5,0000.0,0010.29,0002.29,0001.18
2024-05-25 01:05:00,SystemResetWarning,0823.3,5.00,000.00,031.6,030.9,000.0,039.9,033.2,007.6,0000.0,0010.25,0002.28,0001.19
2024-05-25 01:06:00,SystemResetWarning,0823.4,5.00,000.00,031.6,030.9,000.0,039.9,033.2,007.7,0000.0,0010.26,0002.29,0001.19
2024-05-25 01:07:00,SystemResetWarning,0823.4,5.00,000.00,031.6,030.9,000.0,039.9,033.2,008.0,0000.0,0009.52,0002.27,0001.20
2024-05-25 01:08:00,SystemResetWarning,0823.4,4.99,000.00,031.6,030.9,000.0,039.9,033.2,008.1,0000.0,0009.40,0002.22,0001.20
2024-05-25 01:09:00,SystemResetWarning,0823.4,5.00,000.00,031.6,030.9,000.0,039.9,033.2,008.3,0000.0,0008.41,0002.16,0001.20
2024-05-25 01:10:00,SystemResetWarning,0823.4,5.00,000.00,031.6,030.9,000.0,039.9,033.2,008.4,0000.0,0007.77,0002.26,0001.22
2024-05-25 01:11:00,SystemResetWarning,0823.4,5.00,000.00,031.6,031.0,000.0,040.0,033.2,008.6,0000.0,0007.76,0002.42,0001.24
2024-05-25 01:12:00,SystemResetWarning,0823.4,5.01,000.00,031.6,031.0,000.0,040.0,033.2,008.7,0000.0,0008.78,0002.44,0001.24
2024-05-25 01:13:00,SystemResetWarning,0823.5,4.99,000.00,031.6,031.0,000.0,040.0,033.2,008.7,0000.0,0008.71,0002.37,0001.23
2024-05-25 01:14:00,SystemResetWarning,0823.4,4.99,000.00,031.7,031.0,000.0,040.0,033.2,008.8,0000.0,0008.33,0002.34,0001.23
2024-05-25 01:15:00,SystemResetWarning,0823.4,5.01,000.00,031.7,031.0,000.0,040.0,033.2,008.6,0000.0,0008.23,0002.40,0001.23
2024-05-25 01:16:00,SystemResetWarning,0823.4,5.01,000.00,031.7,031.0,000.0,040.0,033.2,008.6,0000.0,0008.98,0002.41,0001.24
2024-05-25 01:17:00,SystemResetWarning,0823.4,5.00,000.00,031.7,031.0,000.0,040.0,033.3,008.5,0000.0,0008.62,0002.36,0001.24
2024-05-25 01:18:00,SystemResetWarning,0823.5,4.99,000.00,031.7,031.0,000.0,040.0,033.2,008.3,0000.0,0009.08,0002.34,0001.24
2024-05-25 01:19:00,SystemResetWarning,0823.4,4.99,000.00,031.7,031.0,000.0,040.0,033.2,008.3,0000.0,0009.60,0002.39,0001.25
2024-05-25 01:20:00,SystemResetWarning,0823.5,4.99,000.00,031.7,031.0,000.0,040.0,033.2,008.4,0000.0,0010.87,0002.39,0001.25
2024-05-25 01:21:00,SystemResetWarning,0823.4,5.00,000.00,031.7,031.0,000.0,040.0,033.2,008.4,0000.0,0011.44,0002.36,0001.23
2024-05-25 01:22:00,SystemResetWarning,0823.4,5.01,000.00,031.7,030.9,000.0,040.0,033.2,008.4,0000.0,0011.74,0002.31,0001.22
2024-05-25 01:23:00,SystemResetWarning,0823.4,5.01,000.00,031.7,030.9,000.0,040.0,033.2,008.4,0000.0,0011.19,0002.34,0001.23
2024-05-25 01:24:00,SystemResetWarning,0823.5,5.00,000.00,031.7,030.9,000.0,040.0,033.2,008.5,0000.0,0012.11,0002.41,0001.24
2024-05-25 01:25:00,SystemResetWarning,0823.5,5.00,000.00,031.7,030.9,000.0,040.0,033.2,008.6,0000.0,0012.66,0002.49,0001.25
2024-05-25 01:26:00,SystemResetWarning,0823.4,5.00,000.00,031.6,030.9,000.0,040.0,033.1,008.6,0000.0,0012.99,0002.54,0001.25
2024-05-25 01:27:00,SystemResetWarning,0823.5,5.00,000.00,031.6,030.9,000.0,040.0,033.1,008.4,0000.0,0012.90,0002.54,0001.25
2024-05-25 01:28:00,SystemResetWarning,0823.5,5.01,000.00,031.6,030.9,000.0,040.0,033.1,008.5,0000.0,0012.80,0002.55,0001.25
2024-05-25 01:29:00,SystemResetWarning,0823.5,5.01,000.00,031.6,030.9,000.0,040.0,033.1,008.4,0000.0,0013.56,0002.58,0001.24
2024-05-25 01:30:00,SystemResetWarning,0823.4,5.00,000.00,031.6,030.8,000.0,040.0,033.0,008.4,0000.0,0014.52,0002.72,0001.26
2024-05-25 01:31:00,SystemResetWarning,0823.5,5.00,000.00,031.6,030.8,000.0,040.0,033.0,008.5,0000.0,0015.03,0002.78,0001.25
2024-05-25 01:32:00,SystemResetWarning,0823.5,5.01,000.00,031.6,030.8,000.0,040.0,033.0,008.4,0000.0,0014.72,0002.77,0001.26
2024-05-25 01:33:00,SystemResetWarning,0823.5,5.00,000.00,031.5,030.7,000.0,040.0,033.0,008.4,0000.0,0014.78,0002.77,0001.27
2024-05-25 01:34:00,SystemResetWarning,0823.5,4.99,000.00,031.5,030.7,000.0,040.0,033.0,008.5,0000.0,0014.27,0002.77,0001.27
2024-05-25 01:35:00,SystemResetWarning,0823.5,4.99,000.00,031.5,030.7,000.0,040.0,032.9,008.6,0000.0,0013.36,0002.75,0001.26
2024-05-25 01:36:00,SystemResetWarning,0823.5,5.00,000.00,031.5,030.7,000.0,040.0,032.9,008.6,0000.0,0012.71,0002.77,0001.25
2024-05-25 01:37:00,SystemResetWarning,0823.5,5.00,000.00,031.5,030.6,000.0,039.9,032.9,008.5,0000.0,0012.35,0002.71,0001.25
2024-05-25 01:38:00,SystemResetWarning,0823.5,5.00,000.00,031.4,030.6,000.0,039.9,032.9,008.5,0000.0,0013.20,0002.61,0001.24
2024-05-25 01:39:00,SystemResetWarning,0823.5,5.00,000.00,031.4,030.6,000.0,039.9,032.9,008.6,0000.0,0013.53,0002.73,0001.25
2024-05-25 01:40:00,SystemResetWarning,0823.6,5.00,000.00,031.4,030.6,000.0,039.9,032.9,008.7,0000.0,0012.83,0002.82,0001.26
2024-05-25 01:41:00,SystemResetWarning,0823.6,5.00,000.00,031.4,030.6,000.0,039.9,032.9,008.8,0000.0,0011.52,0002.78,0001.25
2024-05-25 01:42:00,SystemResetWarning,0823.6,5.01,000.00,031.4,030.5,000.0,039.9,032.8,008.9,0000.0,0010.12,0002.77,0001.26
2024-05-25 01:43:00,SystemResetWarning,0823.5,5.00,000.00,031.3,030.5,000.0,039.9,032.8,008.9,0000.0,0009.82,0002.76,0001.25
2024-05-25 01:44:00,SystemResetWarning,0823.6,4.99,000.00,031.3,030.5,000.0,039.8,032.8,009.1,0000.0,0009.47,0002.76,0001.25
2024-05-25 01:45:00,SystemResetWarning,0823.6,5.00,000.00,031.3,030.5,000.0,039.8,032.8,009.1,0000.0,0009.69,0002.71,0001.23
2024-05-25 01:46:00,SystemResetWarning,0823.6,5.00,000.00,031.3,030.5,000.0,039.8,032.8,009.1,0000.0,0010.01,0002.66,0001.23
2024-05-25 01:47:00,SystemResetWarning,0823.6,5.00,000.00,031.3,030.5,000.0,039.8,032.8,009.0,0000.0,0010.08,0002.69,0001.24
2024-05-25 01:48:00,SystemResetWarning,0823.6,5.00,000.00,031.3,030.5,000.0,039.8,032.8,009.1,0000.0,0010.11,0002.74,0001.25
2024-05-25 01:49:00,SystemResetWarning,0823.7,5.00,000.00,031.3,030.5,000.0,039.8,032.7,009.1,0000.0,0008.71,0002.79,0001.25
2024-05-25 01:50:00,SystemResetWarning,0823.7,5.00,000.00,031.3,030.5,000.0,039.8,032.7,009.2,0000.0,0008.41,0002.73,0001.26
2024-05-25 01:51:00,SystemResetWarning,0823.6,4.99,000.00,031.3,030.4,000.0,039.8,032.7,009.3,0000.0,0008.93,0002.65,0001.27
2024-05-25 01:52:00,SystemResetWarning,0823.7,5.00,000.00,031.2,030.4,000.0,039.8,032.7,009.2,0000.0,0009.35,0002.61,0001.27
2024-05-25 01:53:00,SystemResetWarning,0823.7,5.00,000.00,031.2,030.4,000.0,039.8,032.8,009.2,0000.0,0009.75,0002.57,0001.27
2024-05-25 01:54:00,SystemResetWarning,0823.7,5.01,000.00,031.2,030.5,000.0,039.7,032.8,009.3,0000.0,0009.93,0002.65,0001.28
2024-05-25 01:55:00,SystemResetWarning,0823.7,5.01,000.00,031.2,030.5,000.0,039.7,032.8,009.2,0000.0,0009.96,0002.67,0001.28
2024-05-25 01:56:00,SystemResetWarning,0823.7,5.00,000.00,031.2,030.5,000.0,039.7,032.8,009.2,0000.0,0009.66,0002.75,0001.29
2024-05-25 01:57:00,SystemResetWarning,0823.7,5.00,000.00,031.3,030.5,000.0,039.7,032.8,009.1,0000.0,0009.28,0002.82,0001.29
2024-05-25 01:58:00,SystemResetWarning,0823.7,5.00,000.00,031.3,030.5,000.0,039.7,032.8,009.2,0000.0,0009.76,0002.81,0001.29
2024-05-25 01:59:00,SystemResetWarning,0823.7,5.00,000.00,031.3,030.5,000.0,039.7,032.9,009.2,0000.0,0010.33,0002.79,0001.29
